DELTA 1 R/B, 2758

Orbit data source: Space-Track

DELTA 1 R/B, 2758 is space debris in SSO originally from a launch on Thu, 20 Apr 1967 UTC launched from the Air Force Western Test Range (AFWTR). Debris objects in space refer to the collection of defunct objects orbiting the Earth. Examples of debris include non-operational satellites, rocket bodies, and fragments generated from explosions, collisions, or faulty payload assembly.

Loading next visibility...
Identifier
2758, 1967-036B
Orbit
SSO
Last TLE update
1 day ago
Origin
Manufacturer
ABL
Mission
Spacecraft
Bus & Motor
ALTAIR, Unknown motor
Mass
33 kg wet, 33 kg dry
Launch date (UTC)
1967-04-20 (58 years ago)
Launch vehicle
Unknown
Launch site
Air Force Western Test Range (AFWTR)
Object type
Payload
Rocket body
Debris
Shape & HBR
Cyl, 1.5 m
Radar Cross Section
0.687 m², Medium (>0.1 m² and < 1m²)

Expand to show TLE details & history

TLE from 1 day ago
0 DELTA 1 R/B
1 02758U 67036B   25170.40699023 -.00000049  00000-0 -52716-5 0  9993
2 02758 101.8783  62.9740 0040838 326.2826  33.5658 12.68917123693279
Epoch: 2025-06-19T09:46Z
TLE epoch observation values (Epoch: 2025-06-19T09:46:03.955Z)
Latitude
-0.00008°
Longitude
8.58242°
Altitude
1,362.562 km
Speed
7.19 km/s
True Right ascension
04h 11m 53s
True Declination
0° 00' 00"
Sunlit
Object was in daylight at epoch
Visualization orbit readout
Latitude
35.16621°
Longitude
-161.85053°
Altitude
1,422.496 km
Speed
7.138 km/s
Apparent Right ascension
14h 03m 13s
Apparent Declination
3° 11' 25"
Sunlit
Object is in daylight
Visualization observer readout
Local Sidereal Time
22:02:38
Azimuth
292.662° NW
Elevation
-20.21°
Doppler factor
1
Orbital elements
Apogee altitude
1,415.582 km
Perigee altitude
1,352.185 km
Semi-major axis
7,762.021 km
Eccentricity
0.00408
Inclination
101.8783°
RAAN
62.974°
Arg. of periapsis
326.2826°
True anomaly
Unknown
Mean anomaly
33.5658°
Eccentric anomaly
Unknown
Mean motion
3.17381 °/min
Orbital period
113.43 mins
BSTAR
-0.0000052716
Loading maneuver chart data...
Loading SW <> Apogee altitude chart data...
Loading historical data...
Loading historical data...
Loading historical data...
Loading historical data...
Loading historical data...
Loading historical data...
Loading historical data...
Other satellites on launch #36 in the year 1967 (1967-04-20 UTC)

DELTA 1 R/B Visibility forecast

Observer location: undefined°, undefined°

Span
Click to sort rows by Start time (UTC) header in descending order
Start Az.
Max El. time (UTC)
Max El. Az.
Max El.
End time (UTC)
End Az.
7 mins2025-06-20 14:22:26.506Z74.924° E2025-06-20 14:26:26.506Z43.747° NE14.023°2025-06-20 14:29:26.506Z20.705° NNE
14 mins2025-06-20 16:09:26.506Z144.727° SSE2025-06-20 16:15:26.506Z86.337° E42.047°2025-06-20 16:23:26.506Z348.529° N
10 mins2025-06-20 18:03:26.506Z222.755° SW2025-06-20 18:07:26.506Z260.4° W23.318°2025-06-20 18:13:26.506Z314.238° NW
8 mins2025-06-21 04:05:26.506Z63.323° ENE2025-06-21 04:08:26.506Z87.632° E16.372°2025-06-21 04:13:26.506Z127.182° SE
14 mins2025-06-21 05:54:26.506Z17.775° NNE2025-06-21 06:01:26.506Z192.989° SSW44.911°2025-06-21 06:08:26.506Z199.575° SSW
9 mins2025-06-21 07:47:26.506Z343.061° N2025-06-21 07:51:26.506Z308.747° NW19.94°2025-06-21 07:56:26.506Z267.412° W
|